Regional Weather Roundup
Issued by NWS

Home | Current Version | Previous Version | Graphics & Text | Print | Product List | Glossary On
Versions: 1 2 3 4 5 6 7 8 9 10 11 12 13 14 15 16 17 18 19 20 21 22 23 24 25 26 27 28 29 30 31 32 33 34 35 36 37 38 39 40 41 42 43 44 45 46 47 48 49 50
000
ASUS43 KLOT 012210
RWRIL

ILLINOIS REGIONAL WEATHER ROUNDUP
NATIONAL WEATHER SERVICE CHICAGO/ROMEOVILLE IL
400 PM CST SUN MAR 01 2015

NOTE: "FAIR" INDICATES FEW OR NO CLOUDS BELOW 12,000 FEET WITH NO
SIGNIFICANT WEATHER AND/OR OBSTRUCTIONS TO VISIBILITY.

* THESE STATIONS ARE NOT UNDER NWS QUALITY CONTROL. THEY ALSO MAY NOT
  REPORT WEATHER SUCH AS PRECIPITATION OR FOG.

ILZ001-002-007-009-015-016-024-012300-
NORTHWEST ILLINOIS

CITY           SKY/WX    TMP DP  RH WIND       PRES   REMARKS
MOLINE         SUNNY     27  15  61 W13       30.33R WCI  16
STERLING*      SUNNY     27  18  69 W15       30.32R WCI  15
SAVANNA*       PTSUNNY   27  18  67 W9        30.30F WCI  18
$$

ILZ003-004-008-010-011-017-018-012300-
NORTH CENTRAL ILLINOIS

CITY           SKY/WX    TMP DP  RH WIND       PRES   REMARKS
ROCKFORD       PTSUNNY   25  14  63 W15       30.29S WCI  13
FREEPORT*      MOSUNNY   24  16  73 SW8       30.29S WCI  15
ROCHELLE*      SUNNY     22  17  81 SW14      30.30R WCI   9
DE KALB*       PTSUNNY   21  15  76 SW10      30.28S WCI  10
PERU*          SUNNY     25  16  69 W8        30.32F WCI  16
$$

ILZ005-006-012>014-019>023-012300-
NORTHEAST ILLINOIS

CITY           SKY/WX    TMP DP  RH WIND       PRES   REMARKS
CHICAGO-OHARE  PTSUNNY   24  15  68 W13       30.26F WCI  12
CHICAGO-MIDWAY PTSUNNY   27  17  66 SW12      30.28F WCI  17
AURORA         PTSUNNY   24  15  68 W15       30.29S WCI  11
LANSING*       PTSUNNY   25  18  74 SW12      30.28F WCI  15
JOLIET*        MOSUNNY   23  16  74 W9        30.31S WCI  13
WAUKEGAN       MOSUNNY   25  15  66 SW8       30.23F WCI  16
DUPAGE AIRPORT PTSUNNY   22  15  75 W14       30.27S WCI   9
KANKAKEE*      MOSUNNY   24  19  80 W9        30.32S WCI  14
WHEELING       MOSUNNY   26  14  60 W13       30.27F WCI  15
MORRIS*        CLOUDY    22  18  83 W7        30.31R WCI  14
ROMEOVILLE*    MOSUNNY   23  16  74 W14       30.29S WCI  11
NORTHERLY ISL    N/A     28  17  63 W9          N/A  WCI  19
$$

LMZ740>746-012300-
SOUTHERN LAKE MICHIGAN

STATION/POSITION SKY/WX   TEMP    WIND        PRES    VSBY  WAVE
                          AIR SEA DIR/SP/G                  HT/PER
                          (F)     (DEG/KT/KT) (MB)    (MI)  (FT/S)
WAUKEGAN HARBOR            25     240/ 14/ 20   N/A
HARRISON CRIB              26     260/ 13/ 16   N/A
BURNHAM HARBOR             27     220/ 12       N/A
CALUMET HARBOR             26     200/ 11/ 13 1023.7S
MICHIGAN CITY              23     230/  5/  6   N/A
$$

ILZ025>027-034>036-040-047-049-050-058-095>099-012300-
WEST-CENTRAL ILLINOIS

CITY           SKY/WX    TMP DP  RH WIND       PRES   REMARKS
QUINCY         MOSUNNY   27  18  69 NW8       30.35S WCI  19
GALESBURG*     CLOUDY    25  19  77 W7        30.34F WCI  17
MACOMB*        PTSUNNY   24  20  84 N3        30.37S
JACKSONVILLE*  MOSUNNY   29  22  73 NW6       30.34F WCI  23
PITTSFIELD*    MOSUNNY   30  22  70 NW6       30.36R WCI  24
$$

ILZ028>032-037-038-041>044-048-051>054-059>061-012300-
CENTRAL ILLINOIS

CITY           SKY/WX    TMP DP  RH WIND       PRES   REMARKS
PONTIAC        SUNNY     24  19  83 W7        30.33S WCI  16
BLOOMINGTON    PTSUNNY   26  21  81 W7        30.31F WCI  18
DECATUR        MOSUNNY   27  20  75 NW7       30.32F WCI  19
PEORIA         MOSUNNY   28  18  66 W9        30.34S WCI  19
LACON*         PTSUNNY   24  17  72 W8        30.33F WCI  15
LINCOLN*       SUNNY     29  21  71 NW5       30.35F WCI  24
SPRINGFIELD    PTSUNNY   29  20  69 W7        30.34F WCI  22
TAYLORVILLE    PTSUNNY   27  21  80 N6        30.33S WCI  20
$$

ILZ033-039-045-046-055>057-062-063-012300-
EAST-CENTRAL ILLINOIS

CITY           SKY/WX    TMP DP  RH WIND       PRES   REMARKS
CHAMPAIGN      CLOUDY    26  20  77 NW7       30.31F WCI  18
DANVILLE*      CLOUDY    26  21  83 NW6       30.29S WCI  19
RANTOUL*       MOSUNNY   27  21  80 NW6       30.32F WCI  20
MATTOON        MOSUNNY   27  22  81 NW8       30.31F WCI  19
PARIS*         PTSUNNY   27  24  90 NW8       30.32S WCI  18
$$

ILZ079-100>102-012300-
SOUTHWEST ILLINOIS

CITY           SKY/WX    TMP DP  RH WIND       PRES   REMARKS
ALTON          CLOUDY    30  23  74 NW6       30.38  WCI  24
BELLEVILLE     CLOUDY    31  28  89 NW8       30.35R WCI  24
CAHOKIA*       CLOUDY    32  26  78 N8        30.36F WCI  25
SPARTA*        CLOUDY    32  28  86 NW7       30.36S WCI  25
$$

ILZ064>066-069>071-074>076-080>082-084>086-088>090-092>094-012300-
SOUTH-CENTRAL ILLINOIS

CITY           SKY/WX    TMP DP  RH WIND       PRES   REMARKS
CARBONDALE     CLOUDY    34  29  82 NW7       30.35S WCI  28
CAIRO*         CLOUDY    40  33  74 CALM      30.34F
EFFINGHAM*     CLOUDY    30  23  75 NW8       30.35R WCI  23
MARION         CLOUDY    36  32  87 NW9       30.35S WCI  29
MT. VERNON     CLOUDY    32  27  80 NW5       30.36R WCI  27
CENTRALIA*     CLOUDY    31  27  86 NW8       30.35S WCI  24
SALEM*         CLOUDY    33  29  85 W8        30.35R WCI  26
METROPOLIS*    CLOUDY    38  33  80 N3        30.33F
$$

ILZ067-068-072-073-078-083-087-091-012300-
SOUTHEAST ILLINOIS

CITY           SKY/WX    TMP DP  RH WIND       PRES   REMARKS
LAWRENCEVILLE  MIX PCPN  33  30  88 W6        30.32F FOG     WCI  28
FLORA*         CLOUDY    31  29  92 NW8       30.35R WCI  24
FAIRFIELD*     CLOUDY    32  31  93 CALM      30.33R
HARRISBURG*    CLOUDY    35  32  90 W7        30.35S WCI  29
ROBINSON*      CLOUDY    32  30  92 W7        30.33F WCI  26
CARMI*         CLOUDY    34  34  98 W6        30.33F FOG     WCI  29
$$

ABBREVIATIONS USED IN REMARKS
   TC - TEMPERATURE IN CELSIUS
  WCI - WIND CHILL INDEX
   HX - HEAT INDEX
  VSB - VISIBILITY
$$




USA.gov is the U.S. government's official web portal to all federal, state and local government web resources and services.